Location: Unspecified
(43.4354°N, 0.0000°E)
Time: 21:17:42
(UTC+00:00)

Vanguard 2 Rocket - Pass Details

Date: 21 June 2019
Orbit: 554 x 3326 km, 32.9° (Epoch: 16 July)

Event Time Altitude Azimuth Distance (km) Brightness Sun altitude
Rises 21:26:47 0° 227° (SW) 3,920 10.1 -14.2°
Reaches altitude 10° 21:29:16 10° 218° (SW) 3,247 9.6 -14.5°
Maximum altitude 21:36:58 38° 153° (SSE) 2,523 8.6 -15.3°
Drops below altitude 10° 21:49:36 10° 94° (E) 5,329 10.5 -16.6°
Sets 21:55:00 0° 88° (E) 6,729 11.1 -17.1°
